www.pogodaiklimat.ru

Погода и климат >> Архив погоды >> Кувейт >> Аль-Салми


ПОГОДА на Аль-Салми

  • Прогноз погоды на Аль-Салми
  • Монитор погоды на Аль-Салми

АРХИВ ПОГОДЫ на Аль-Салми

Время (UTC), дата Ветер
(напр.,м/с)
 
Видим.   Явления Облачность Т
(С)
Тd
(С)
f
(%)
Тe
(С)
Тes
(С)
Комфортность P
(гПа)
Po
(гПа)
Тmin
(С)
Tmax
(С)
R
(мм)
R24
(мм)
S
(см)
12 11.02 С 7-10
{11}
17 км н/о +16.5 +7.4 55 +15 +15 1014.8 981.0
15 11.02 С 5-6
{11}
18 км н/о +14.2 +7.3 63 +13 +13 1016.3 982.2
18 11.02 З 3-4
{11}
19 км н/о +10.5 +8.3 86 +8 +8 1018.1 983.5
21 11.02 З 3-4
{11}
20 км н/о +9.5 +6.0 79 +7 +7 1018.6 983.9 +9.4 +17.1
00 12.02 З 4-6
{11}
20 км н/о +8.4 +6.5 88 +5 +5 1019.0 984.1
03 12.02 З 5-6
{8}
20 км н/о +7.1 +7.1 100 +3 +3 1020.1 985.0
06 12.02 СЗ 7-9
{9}
17 км н/о +11.3 +8.4 82 +8 +8 1021.1 986.5
09 12.02 СЗ 8-13
{13}
19 км н/о +15.0 +6.0 55 +13 +13 1021.0 986.8
12 12.02 СЗ 7-10
{13}
20 км н/о +16.6 +5.0 46 +15 +15 1019.8 985.9
15 12.02 СЗ 4-5
{11}
20 км н/о +13.7 +4.6 54 +12 +12 1021.8 987.5
18 12.02 З 4-4
{11}
20 км н/о +11.1 +5.2 67 +9 +9 1023.5 988.8
21 12.02 З 3-4
{5}
20 км н/о +8.6 +5.1 79 +6 +6 1024.1 989.1 +6.8 +16.8
00 13.02 З 3-3
{5}
20 км н/о +7.4 +4.3 81 +5 +5 1024.1 988.9
03 13.02 ЮЗ 3-4
{4}
20 км н/о +6.5 +4.2 85 +3 +3 1025.5 990.2
06 13.02 З 2-3
{4}
20 км н/о +11.5 +6.4 71 +10 +10 1026.1 991.3
09 13.02 СЗ 1-3
{4}
20 км н/о +16.0 +3.2 42 +17 +17 1024.0 989.8
12 13.02 В 2-5
{5}
20 км н/о +18.2 +2.9 36 +19 +19 1021.7 987.9
15 13.02 В 2-3
{6}
20 км н/о +15.1 +1.9 41 +15 +15 1022.7 988.5
18 13.02 Ю 2-3
{6}
20 км н/о +11.4 +3.8 60 +11 +11 1023.3 988.6
21 13.02 ЮВ 1-2
{5}
19 км н/о +10.2 +6.0 75 +10 +10 1022.0 987.2 +6.1 +18.3
00 14.02 ЮВ 4-5
{5}
5000 м дымка н/о +9.7 +9.0 95 +7 +7 1020.8 986.0
03 14.02 ЮВ 3-5
{6}
4600 м дымка н/о +10.3 +9.1 92 +8 +8 1020.8 986.1
06 14.02 ЮВ 6-10
{10}
18 км н/о +14.8 +6.4 57 +13 +13 1021.1 986.9
09 14.02 ЮВ 8-14
{14}
16 км н/о +19.1 +3.5 36 +19 +19 1017.4 983.8
12 14.02 ЮВ 10-16
{16}
16 км н/о +20.8 +3.6 32 +21 +21 комфорт 1014.5 981.2
15 14.02 ЮВ 11-15
{19}
19 км н/о +16.0 +7.7 58 +14 +14 1013.3 979.5
18 14.02 ЮВ 5-9
{19}
20 км н/о +15.9 +5.5 50 +15 +15 1015.7 981.8
21 14.02 В 7-10
{12}
13 км {ливн. осадки, дождь} н/о +13.7 +9.5 76 +11 +11 1014.3 980.2 +9.6 +21.3
00 15.02 ЮВ 9-12
{14}
3900 м дымка {ливн. осадки, дождь} н/о +13.1 +11.3 89 +10 +10 1012.9 978.8
03 15.02 ЮВ 9-13
{13}
8000 м дымка н/о +13.4 +9.6 78 +10 +10 1012.0 977.9
06 15.02 ЮВ 7-13
{14}
13 км н/о +15.8 +8.5 62 +14 +14 1013.2 979.4
09 15.02 Ю 4-10
{13}
5000 м дым н/о +20.7 +8.7 46 +22 +22 комфорт 1011.4 978.2
12 15.02 ЮВ 5-8
{13}
4600 м дым н/о +22.5 +9.6 44 +24 +24 комфорт 1009.4 976.5
15 15.02 З 4-6
{9}
19 км н/о +22.1 +1.0 25 +22 +22 комфорт 1011.2 978.2
18 15.02 СЗ 4-6
{9}
20 км н/о +17.6 +3.5 39 +17 +17 1013.8 980.2
21 15.02 С 5-7
{7}
20 км н/о +15.6 +2.2 40 +15 +15 1014.9 981.0 +12.9 +24.6
00 16.02 С 7-8
{11}
2300 м дымка н/о +11.6 +10.9 95 +8 +8 1016.5 982.1
03 16.02 С 7-9
{10}
13 км н/о +10.2 +6.8 79 +7 +7 1017.5 982.9
09 16.02 С 8-11
{13}
19 км н/о +17.4 +1.4 34 +16 +16 1019.1 985.3
12 16.02 С 8-12
{13}
19 км н/о +18.0 -2.1 25 +17 +17 1018.0 984.3
15 16.02 С 5-7
{12}
20 км н/о +15.3 -1.2 32 +14 +14 1019.7 985.6
18 16.02 СЗ 2-2
{12}
19 км н/о +11.4 +0.5 47 +11 +11 1021.8 987.2
21 16.02 ЮЗ 2-3
{3}
17 км н/о +10.1 +0.5 51 +9 +9 1021.7 986.9 +9.9 +18.6
00 17.02 ЮЗ 2-3
{5}
17 км н/о +8.7 +0.3 56 +8 +8 1021.2 986.3
03 17.02 ЮЗ 3-4
{4}
18 км н/о +7.5 +0.3 60 +5 +5 1021.4 986.3
06 17.02 ЮЗ 4-5
{6}
14 км н/о +14.0 +1.5 43 +13 +13 1022.2 987.9
09 17.02 СЗ 6-10
{10}
19 км н/о +18.9 +0.4 29 +19 +19 1020.4 986.7
12 17.02 СЗ 6-10
{12}
19 км н/о +19.8 -1.1 24 +20 +20 1018.3 984.8
15 17.02 СЗ 4-5
{12}
18 км н/о +16.6 -0.2 32 +16 +16 1018.6 984.7
18 17.02 СЗ 3-3
{12}
20 км н/о +12.2 +1.2 47 +11 +11 1020.0 985.5
21 17.02 С 3-4
{4}
19 км н/о +10.1 +2.4 59 +8 +8 1019.8 985.1 +6.6 +20.4
00 18.02 СЗ 2-2
{4}
20 км н/о +8.9 +3.4 68 +8 +8 1019.2 984.4
03 18.02 З 3-3
{3}
20 км н/о +6.3 +2.5 77 +3 +3 1019.5 984.3
06 18.02 СЗ 1-2
{3}
19 км н/о +13.6 +5.2 57 +14 +14 1019.2 984.9
09 18.02 СЗ 2-4
{4}
20 км н/о +17.4 +3.0 38 +18 +18 1017.3 983.5

 

Местоположение метеостанции Аль-Салми (Кувейт): широта 29.10 долгота 46.68 высота над уровнем моря 287 м.

В архиве по умолчанию представлена погода на Аль-Салми за последнюю неделю. Архивные данные за месяц целиком и за предыдущие месяцы, начиная с января 2011 года, Вы можете получить, выбрав интересующий диапазон дат из раскрывающегося списка и нажав кнопку "Ввод!".


*Определитесь, кто Вы:
робот инопланетянин человек

Внимание! Время в таблицах - всемирное. Для получения местного времени необходимо прибавить поправку, которая равна 3 ч.

Смотрите также архив погоды в соседних городах и на ближайших метеорологических станциях:

Погода на Абраке Аль Хабари (Кувейт) (38 км)
Погода в Минагише (Кувейт) (83 км)
Погода в Эль-Джахра (Кувейт) (99 км)
Погода в Аль-Кайсумахе (Саудовская Аравия) (102 км)
Погода в Сулайбии (Кувейт) (103 км)
Погода на Метеостанции Jal Aliyah (Кувейт) (104 км)
Погода на Метеостанции Mintribah (Кувейт) (104 км)
Погода на Экспериментальной ферме (Кувейт) (124 км)
Погода в Эль-Кувейте (Кувейт) (126 км)
Погода на Метеостанции Sabriyah (Кувейт) (134 км)

Пояснения к столбцам:

Ветер - указаны скорость ветра в м/с - средняя за 10 мин, порывы в срок и между сроками (в фигурных скобках) и направление, откуда дует ветер: С - северный, СВ - северо-восточный, В - восточный, ЮВ - юго-восточный, Ю - южный, ЮЗ - юго-западный, З - западный, СЗ - северо-западный.
Видимость - горизонтальная дальность видимости в метрах или километрах. При видимости от 1 до 10 км при отсутствии осадков обычно наблюдается дымка, при ухудшении видимости до 1 км и менее - туман. В сухую погоду видимость может ухудшаться дымом, пылью или мглою.
Явления - указаны атмосферные явления, наблюдавшиеся в срок или в последний час перед сроком; фигурными скобками обозначены явления, наблюдавшиеся между сроками (за 1-3 часа до срока); квадратными скобками обозначены град или гололедные отложения с указанием их диаметра в мм.
Облачность - указаны через наклонную черту общая и нижняя облачность в баллах и высота нижней границы облаков в метрах; квадратными скобками обозначены формы облаков: Ci - перистые, Cs - перисто-слоистые, Cc - перисто-кучевые, Ac - высококучевые, As - высокослоистые, Sc - слоисто-кучевые, Ns - слоисто-дождевые, Cu - кучевые, Cb - кучево-дождевые. Подробнее классификацию облаков см. в Атласе облаков (PDF).
T - Температура воздуха - температура, измеренная на высоте 2 м над землей.
Td - Температура точки росы - температура, при понижении до которой содержащийся в воздухе водяной пар достигнет насыщения.
f - Относительная влажность воздуха - влажноcть воздуха, измеренная на высоте 2 м над землей.
Te - Эффективная температура - температура, которую ощущает одетый по сезону человек в тени. Характеристика душности погоды. При расчете учитывается влияние влажности воздуха и скорости ветра на теплоощущения человека.
Tes - Эффективная температура на солнце - температура, которую ощущает человек, с поправкой на солнечный нагрев. Характеристика знойности погоды. Зависит от высоты солнца над горизонтом, облачности и скорости ветра. Ночью, в пасмурную погоду, а также при ветре 12 м/с и более поправка равна нулю.
P - Атмосферное давление - приведенное к уровню моря атмосферное давление.
Po - Атмосферное давление - измеренное на уровне метеостанции атмосферное давление.
Tmin - Минимальная температура - минимум температуры воздуха на высоте 2 м над землей.
Tmax - Максимальная температура - максимум температуры воздуха на высоте 2 м над землей.
R - Количество осадков - Количество выпавших осадков за период времени, мм. При наведении курсора мыши на число - период времени, за который выпало указанное количество осадков.
R24 - Количество осадков - Количество выпавших осадков за 24 часа, мм.
S - Снежный покров - Высота снежного покрова, см. При наведении курсора мыши на число - состояние снежного покрова и степень покрытия местности в баллах.